Location: Keppel Henge
(44.7900°N, 80.9447°W)
Time: 11:10:09
(UTC-04:00)

N. Korean satellite - Pass Details

Date: 12 October 2017
Orbit: 459 x 517 km, 97.2° (Epoch: 22 October)

Event Time Altitude Azimuth Distance (km) Brightness Sun altitude
Rises 20:10:48 0° 197° (SSW) 2,555 10.4 -16.2°
Reaches altitude 10° 20:13:13 10° 213° (SSW) 1,668 9.6 -16.6°
Maximum altitude 20:16:03 22° 265° (W) 1,107 9.3 -17.1°
Drops below altitude 10° 20:18:52 10° 318° (NW) 1,654 9.9 -17.6°
Sets 20:21:16 0° 334° (NNW) 2,528 10.7 -18.1°
